TIME,DELAY(SENSOR),PRES,OXYGEN,RAWTEMP,T(OPTODE),TCPHASE,FLUOR,BETA(BETA700),BETA(BETA412),BETA(BETA440),CDOM,C(CSC),ED(ED412.40),ED(ED444.00),ED(ED489.70),ED(ED554.30),LU(LU411.80),LU(LU443.40),LU(LU489.60),LU(LU554.10),COMP,TILTX,TILTY,CHECK
1340682236,5807,903.4799804687500000,43.7926101684570300,663.7399291992188000,4.5047698020935060,54.4760704040527340,53,100,89,79,81,15389,2147757174,2147419712,2148007040,2147875593,2147640585,2147062464,2148258139,2147200256,460,4,13,16589
1340685832,5808,975.3300170898438000,46.5795898437500000,668.9768066406250000,4.3319911956787110,54.1344985961914060,53,101,86,79,82,15388,2147757092,2147419062,2148009609,2147878061,2147642825,2147057801,2148260480,2147198774,2618,4,13,45105
1340689432,5810,986.4899902343750000,46.2005691528320300,669.2736816406250000,4.3221859931945800,54.1986198425293000,53,99,88,79,82,15386,2147759734,2147416210,2148007021,2147874770,2147642285,2147057490,2148260726,2147199350,499,4,14,42260
1340693032,5807,982.0499877929688000,46.1284790039062500,670.2534179687500000,4.2898268699646000,54.2140884399414060,52,100,87,79,82,15383,2147759506,2147420443,2148010770,2147878290,2147643382,2147063314,2148263725,2147199058,864,4,13,50994
1340696632,5808,994.7600097656250000,46.5105209350585940,670.6613159179688000,4.2763481140136720,54.1664505004882800,53,98,89,78,82,15384,2147756854,2147421558,2148006884,2147875584,2147644562,2147063149,2148260717,2147198464,3183,4,13,40692
1340700232,5811,991.7199707031250000,46.9790916442871100,672.1248168945312000,4.2279820442199710,54.1231498718261700,54,97,88,79,82,15383,2147757376,2147421412,2148007341,2147875629,2147645430,2147063789,2148265252,2147202358,445,4,13,40351
1340703832,5806,986.0999755859375000,47.0037307739257800,672.7509765625000000,4.2072768211364750,54.1266288757324200,52,100,88,78,83,15377,2147761810,2147420388,2148006262,2147874048,2147643090,2147059876,2148261403,2147200109,178,4,13,22163
1340707432,5808,986.1099853515625000,47.7570304870605500,674.6337890625000000,4.1450037956237790,54.0441398620605500,52,98,85,78,84,15378,2147757348,2147420059,2148008201,2147876882,2147641408,2147056850,2148264256,2147199122,3509,4,13,51066
1340711032,5806,982.7600097656250000,48.3189201354980500,676.0313720703125000,4.0987510681152340,53.9780082702636700,52,99,87,80,82,15381,2147758208,2147417920,2148007597,2147873920,2147644370,2147055506,2148267364,2147199058,3523,4,13,35743
1340714632,5808,990.0999755859375000,48.4231910705566400,675.7565917968750000,4.1078472137451170,53.9594306945800800,53,99,88,79,81,15381,2147762432,2147421430,2148007853,2147874916,2147644105,2147062409,2148267044,2147199204,398,5,13,36797
1340718232,5811,984.2399902343750000,48.2476501464843750,676.1597290039062000,4.0945010185241700,53.9920883178710940,52,100,87,80,82,15378,2147760438,2147421211,2148007716,2147875894,2147644324,2147059026,2148264201,2147202395,24,4,13,50667
1340721832,5811,991.0300292968750000,48.5558509826660160,676.3673706054688000,4.0876269340515140,53.9515113830566400,52,99,89,79,83,15379,2147760374,2147421120,2148007734,2147873572,2147641892,2147056420,2148260041,2147199268,3472,4,13,49168
1340725432,5807,1008.9699707031250000,47.7471313476562500,674.4260253906250000,4.1518797874450680,54.0384483337402340,52,101,88,78,82,15377,2147761828,2147422189,2148008054,2147877604,2147641142,2147056841,2148259922,2147198820,402,4,13,1204
1340729032,5811,1008.2199707031250000,46.9570999145507800,672.9196777343750000,4.2017021179199220,54.1289710998535160,53,98,88,78,82,15372,2147757266,2147418770,2148007488,2147875273,2147642038,2147055186,2148265947,2147200137,206,4,13,19492
1340732632,5806,1012.3099975585938000,46.1253814697265600,671.2202758789062000,4.2578768730163570,54.2292594909668000,52,111,86,81,83,15377,2147759542,2147422436,2148008640,2147876589,2147643794,2147063387,2148266258,2147201033,132,4,14,22313
1340736232,5807,1006.1300048828125000,45.6505584716796900,670.8510131835938000,4.2700819969177250,54.2920989990234400,53,100,86,80,81,15374,2147758893,2147418221,2148011117,2147873837,2147644205,2147056118,2148263314,2147199926,574,4,13,1566
1340739832,5810,1007.0200195312500000,46.3594398498535160,672.5222778320312000,4.2148399353027340,54.2097816467285160,53,99,88,78,82,15373,2147755648,2147421476,2148006454,2147872338,2147640923,2147060077,2148263808,2147197385,93,4,13,43126
1340743432,5812,1004.2899780273438000,46.3980102539062500,672.8585815429688000,4.2037200927734375,54.2077903747558600,53,110,92,78,81,15375,2147760448,2147419245,2148010212,2147876096,2147641682,2147055369,2148266605,2147199926,8,4,13,10976
1340747032,5811,1001.6199951171875000,46.6137695312500000,673.6149291992188000,4.1787090301513670,54.1924705505371100,52,98,90,78,83,15273,2147759067,2147417801,2148009920,2147872576,2147644086,2147058422,2148265005,2147200082,3294,4,13,58574
1340750632,5809,993.1400146484375000,47.1644287109375000,675.3803100585938000,4.1203022003173830,54.1342697143554700,52,100,86,79,81,15259,2147761042,2147421650,2148008905,2147874166,2147644672,2147055524,2148263515,2147199213,204,4,13,32498
1340754232,5808,997.4400024414062000,48.1697196960449200,676.3472900390625000,4.0882930755615230,54.0040016174316400,53,104,90,79,82,15358,2147757961,2147422080,2148009581,2147874203,2147643428,2147060342,2148264384,2147199844,3294,4,13,9589
1340757832,5807,992.5700073242188000,47.9678497314453100,675.6502075195312000,4.1113681793212890,54.0201606750488300,52,99,88,79,82,15349,2147760795,2147418377,2148007012,2147877586,2147641609,2147056164,2148263881,2147195894,3344,4,13,41763
1340761432,5809,997.5399780273438000,47.9650611877441400,676.3665771484375000,4.0876522064208980,54.0302391052246100,53,97,89,82,83,15347,2147762496,2147422546,2148008310,2147875072,2147648018,2147056585,2148262189,2147198217,3557,4,13,45097
1340765032,5808,998.4299926757812000,48.1217918395996100,676.4050292968750000,4.0863819122314450,54.0079002380371100,53,100,89,80,82,15346,2147758217,2147423277,2148008018,2147876315,2147643638,2147059830,2148261814,2147199844,106,4,13,12967
1340768632,5810,1012.1099853515625000,47.3135681152343750,673.8463134765625000,4.1710548400878910,54.0929603576660160,53,99,88,80,83,15346,2147758756,2147418825,2148008484,2147875849,2147641133,2147061293,2148264027,2147195913,295,4,13,22201
1340772232,5809,1010.6099853515625000,47.2347488403320300,673.5626220703125000,4.1804409027099610,54.0990600585937500,53,99,88,79,83,15349,2147759460,2147421760,2148008850,2147874541,2147643840,2147061933,2148264768,2147200109,178,4,13,25437
1340775832,5811,1018.3200073242188000,46.7411994934082000,672.7169189453125000,4.2084059715271000,54.1567802429199200,53,98,85,80,82,15350,2147758482,2147423835,2148008246,2147874368,2147641408,2147062363,2148265344,2147199433,85,5,13,40399
1340779432,5808,1011.7199707031250000,46.6094284057617200,672.8231201171875000,4.2048931121826170,54.1824302673339840,52,99,88,79,82,15352,2147756589,2147421348,2148010057,2147873609,2147645083,2147064594,2148260900,2147196489,541,4,13,1078
1340783032,5808,1010.0800170898438000,46.6671791076660160,673.0316162109375000,4.1979999542236330,54.1753501892089840,53,102,92,78,83,15354,2147759040,2147421065,2148007826,2147876507,2147644845,2147060809,2148264210,2147201618,193,4,13,15425
1340786632,5810,1009.5599975585938000,46.3993415832519500,673.1644897460938000,4.1936049461364750,54.2168693542480500,52,99,87,79,81,15349,2147760484,2147419556,2148005650,2147879186,2147646765,2147067017,2148261595,2147203254,74,4,13,22313
1340790232,5809,1002.0399780273438000,46.6580810546875000,673.7960815429688000,4.1727142333984375,54.1877517700195300,53,99,88,79,82,15348,2147759488,2147419373,2148009362,2147877650,2147644891,2147058788,2148264768,2147199040,168,4,13,49374
1340793832,5809,993.9000244140625000,47.1804008483886700,675.7545776367188000,4.1079120635986330,54.1375389099121100,52,100,85,79,81,15348,2147762249,2147419958,2148007643,2147877056,2147642925,2147060461,2148263268,2147201069,3382,4,13,15862
1340797432,5808,999.3699951171875000,47.9830894470214840,676.8676147460938000,4.0710678100585940,54.0349311828613300,52,98,88,80,82,15346,2147760237,2147423296,2148011017,2147873846,2147643136,2147061376,2148266678,2147198674,122,4,13,37679
1340801032,5807,995.9299926757812000,48.1571502685546900,676.8892822265625000,4.0703492164611820,54.0115089416503900,52,98,87,79,82,15350,2147759433,2147418916,2148005668,2147873234,2147644178,2147058486,2148262518,2147197174,105,4,13,6320
1340804632,5808,1002.5800170898438000,48.5964088439941400,678.0800781250000000,4.0309100151062010,53.9695510864257800,53,99,85,80,83,15349,2147760777,2147420306,2148009700,2147872128,2147642523,2147065810,2148264502,2147199186,3519,4,14,4564
1340808232,5809,1000.7700195312500000,48.1358795166015600,677.4052124023438000,4.0532650947570800,54.0235099792480500,53,101,89,79,82,15343,2147761920,2147420598,2148010514,2147875492,2147644059,2147061110,2148265362,2147202386,438,4,13,28319
1340811832,5806,1010.9500122070312000,48.1116981506347660,676.2058715820312000,4.0929760932922360,54.0088615417480500,52,100,85,80,83,15345,2147761353,2147420379,2148011574,2147874294,2147643730,2147063405,2148267501,2147199268,760,4,13,46666
1340815432,5808,1013.3300170898438000,46.9937782287597660,673.6710205078125000,4.1768550872802730,54.1371307373046900,52,99,90,79,83,15343,2147760402,2147422729,2148010660,2147874020,2147641188,2147060534,2148264667,2147198372,410,4,13,50133
1340819032,5812,1020.8200073242188000,46.5482711791992200,672.6381225585938000,4.2110118865966800,54.1855201721191400,53,99,89,80,82,15343,2147761024,2147418432,2148008832,2147873225,2147640493,2147061403,2148266166,2147197522,2890,4,13,53621
1340822632,5806,1017.2299804687500000,45.6584091186523440,672.6912231445312000,4.2092552185058590,54.3139686584472660,53,100,88,79,82,15344,2147759762,2147420699,2148007094,2147874980,2147644745,2147060434,2148262473,2147197778,2878,4,13,1050
1340826232,5810,1014.2600097656250000,46.3709602355957000,673.5140991210938000,4.1820430755615230,54.2195816040039060,52,99,89,78,83,15344,2147756754,2147421494,2148006464,2147876388,2147642395,2147060635,2148260498,2147200228,3348,4,13,18862
1340826655,5811,1017.9199829101562000,46.6473884582519500,673.5778198242188000,4.1799349784851070,54.1874885559082000,52,99,94,80,82,15374,2147759094,2147420077,2148009837,2147876864,2147642066,2147058450,2148260324,2147198016,3254,4,13,35030
